Regional Weather Roundup
Issued by NWS Cleveland, OH

Home | Current Version | Previous Version | Text Only | Print | Product List | Glossary Off
Versions: 1 2 3 4 5 6 7 8 9 10 11 12 13 14 15 16 17 18 19 20 21 22 23 24 25 26 27 28 29 30 31 32 33 34 35 36 37 38 39 40 41 42 43 44 45 46 47 48 49 50

000
ASUS41 KCLE 310302
RWRCLE
OHIO REGIONAL WEATHER ROUNDUP
NATIONAL WEATHER SERVICE CLEVELAND, OH
1100 PM EDT SAT JUL 30 2016

NOTE: "FAIR" INDICATES FEW OR NO CLOUDS BELOW 12,000 FEET WITH NO
SIGNIFICANT WEATHER AND/OR OBSTRUCTIONS TO VISIBILITY.

OHZ001>008-015>018-024>027-034-035-043-044-310400-
   NORTHWEST OHIO

CITY           SKY/WX    TMP DP  RH WIND       PRES   REMARKS
DEFIANCE       HVY RAIN  71  68  90 N3        29.99R FOG
FINDLAY        CLEAR     75  67  76 E6        29.96R
TOLEDO EXPRESS MOCLDY    71  71 100 N6        29.98R
TOLEDO EXEC    MOCLDY    72  70  93 N5        29.99R
LIMA           CLOUDY    72  69  90 E7        29.97R
$$

OHZ009>014-019>023-028>033-038-089-310400-
   NORTHEAST OHIO

CITY           SKY/WX    TMP DP  RH WIND       PRES   REMARKS
CLE-HOPKINS    PTCLDY    71  65  81 SE5       29.99S
CLE-LAKEFRONT  PTCLDY    73  68  84 SE3       29.96S
CUY CO. ARPT   PTCLDY    72  72 100 SE5       29.98F
LORAIN-ELYRIA  CLEAR     68  66  93 CALM      29.98S FOG
ASHTABULA      MOCLDY    70  70 100 CALM      29.99S
AKRON-CANTON   PTCLDY    69  66  90 CALM      29.99S
WOOSTER        FOG       67  66  97 SE3       29.99S VSB 1/4
MANSFIELD      CLOUDY    71  67  87 E3        30.00R
YOUNGSTOWN     PTCLDY    69  68  96 CALM      29.99R FOG
$$

OHZ042-051>053-060>062-070>072-077>081-310400-
  SOUTHWEST OHIO

CITY           SKY/WX    TMP DP  RH WIND       PRES   REMARKS
CINC-COVINGTON CLEAR     75  71  87 SW6       29.99R
CINC-LUNKEN    CLEAR     73  72  96 SW5       29.98R
HAMILTON       CLEAR     71  68  90 CALM      29.98R
DAYTON         MOCLDY    75  70  84 SW5       29.98R
WRIGHT-PAT AFB CLEAR     75  69  82 SW2       29.97R
DAYTON GENERAL CLEAR     74  64  71 CALM      29.97R
WILMINGTON     CLEAR     72  69  90 SW5       29.98R
$$

OHZ036-037-039>041-045>050-054>059-063>069-073>076-082>088-310400-
  CENTRAL AND SOUTHEAST OHIO

CITY           SKY/WX    TMP DP  RH WIND       PRES   REMARKS
COLUMBUS       LGT RAIN  73  69  87 N7        29.97R
OSU AIRPORT    CLOUDY    72  69  90 NE9       29.98R
BOLTON FIELD   CLOUDY    73  71  95 NE5       29.98S
RICKENBACK AFB MOCLDY    72  67  84 E6        29.96S
NEWARK         LGT RAIN  71  69  93 CALM      29.96F
MARION         CLOUDY    74  70  87 CALM      29.98R
LANCASTER      CLEAR     70  68  93 SE5       29.98R
ZANESVILLE     PTCLDY    72  68  87 NE3       29.98R
NEW PHILLY     CLOUDY    73  69  87 CALM      29.99R
$$



USA.gov is the U.S. government's official web portal to all federal, state and local government web resources and services.